Orbital Elements at Epoch 2459000.5 (2020-May-31.0) TDB
Reference: JPL 17 (heliocentric ecliptic J2000)
Element | Value | Uncertainty (1-sigma) | Units |
e | .02626825539380476 | 6.8072e-08 | |
a | 2.782927773741316 | 4.3679e-08 | au |
q | 2.709825116238167 | 1.7334e-07 | au |
i | 2.572451787480014 | 5.0185e-06 | deg |
node | 85.99101741422781 | 0.000197 | deg |
peri | 156.8700922529539 | 0.00027361 | deg |
M | 89.86653409755574 | 0.00019249 | deg |
tp | 2458577.201410613463 (2019-Apr-03.70141061) | 0.00090204 | TDB |
period | 1695.70901681517 4.64 | 3.9922e-05 1.093e-07 | d yr |
n | .2123005754113057 | 4.9982e-09 | deg/d |
Q | 2.856030431244465 | 4.4827e-08 | au |
|
| | Orbit Determination Parameters
Additional Information
|